• In Slovakia
  • List of Countries
  • For 7 days
  • Water Temperature
  • Satellite Maps
  • Weather Map
  • Weather Widgets
  • user-avatar
    Login

    Hourly Weather La Esperanza

    Today, 24 February, Saturday

    Time Temperature Precipitation Wind Pressure Humidity
    00:00 +12°C° 0 mm 1 mps 618 mmHg 89%
    01:00 +12°C° 0 mm 1 mps 618 mmHg 89%
    02:00 +12°C° 0 mm 1 mps 617 mmHg 90%
    03:00 +11°C° 0 mm 1 mps 617 mmHg 91%
    04:00 +11°C° 0 mm 1 mps 617 mmHg 91%
    05:00 +11°C° 0 mm 1 mps 617 mmHg 91%
    06:00 +11°C° 0 mm 1 mps 617 mmHg 92%
    07:00 +13°C° 0 mm 1 mps 618 mmHg 77%
    08:00 +16°C° 0 mm 1 mps 620 mmHg 63%
    09:00 +20°C° 0 mm 1 mps 621 mmHg 48%
    10:00 +22°C° 0 mm 1 mps 621 mmHg 41%
    11:00 +24°C° 0 mm 2 mps 622 mmHg 33%
    12:00 +26°C° 0 mm 2 mps 622 mmHg 26%
    13:00 +26°C° 0 mm 2 mps 621 mmHg 25%
    14:00 +26°C° 0 mm 2 mps 621 mmHg 25%
    15:00 +26°C° 0 mm 3 mps 620 mmHg 24%
    16:00 +24°C° 0 mm 2 mps 620 mmHg 30%
    17:00 +21°C° 0 mm 2 mps 619 mmHg 36%
    18:00 +20°C° 0 mm 1 mps 618 mmHg 43%
    19:00 +18°C° 0 mm 1 mps 618 mmHg 51%
    20:00 +16°C° 0 mm 1 mps 618 mmHg 59%
    21:00 +13°C° 0 mm 0 mps 618 mmHg 67%
    22:00 +13°C° 0 mm 0 mps 618 mmHg 69%
    23:00 +12°C° 0 mm 0 mps 618 mmHg 72%

    Tomorrow, 25 February, Sunday

    Time Temperature Precipitation Wind Pressure Humidity
    00:00 +12°C° 0 mm 0 mps 618 mmHg 74%
    01:00 +12°C° 0 mm 1 mps 618 mmHg 76%
    02:00 +12°C° 0 mm 1 mps 617 mmHg 78%
    03:00 +11°C° 0 mm 1 mps 617 mmHg 79%
    04:00 +11°C° 0 mm 1 mps 617 mmHg 80%
    05:00 +11°C° 0 mm 1 mps 617 mmHg 81%
    06:00 +10°C° 0 mm 1 mps 617 mmHg 82%
    07:00 +14°C° 0 mm 1 mps 618 mmHg 69%
    08:00 +18°C° 0 mm 1 mps 620 mmHg 57%
    09:00 +21°C° 0 mm 1 mps 622 mmHg 44%
    10:00 +23°C° 0 mm 1 mps 622 mmHg 39%
    11:00 +25°C° 0 mm 2 mps 622 mmHg 33%
    12:00 +26°C° 0 mm 2 mps 622 mmHg 28%
    13:00 +25°C° 0 mm 2 mps 621 mmHg 30%
    14:00 +24°C° 0 mm 1 mps 620 mmHg 33%
    15:00 +23°C° 0 mm 1 mps 619 mmHg 35%
    16:00 +21°C° 0 mm 1 mps 619 mmHg 40%
    17:00 +18°C° 0 mm 0 mps 618 mmHg 45%
    18:00 +16°C° 0 mm 0 mps 618 mmHg 50%
    19:00 +15°C° 0 mm 0 mps 618 mmHg 57%
    20:00 +14°C° 0 mm 0 mps 618 mmHg 63%
    21:00 +12°C° 0 mm 0 mps 618 mmHg 70%
    22:00 +12°C° 0 mm 0 mps 618 mmHg 71%
    23:00 +12°C° 0 mm 1 mps 618 mmHg 73%

    Day after tomorrow, 26 February, Monday

    Time Temperature Precipitation Wind Pressure Humidity
    00:00 +12°C° 0 mm 1 mps 618 mmHg 74%
    01:00 +12°C° 0 mm 1 mps 617 mmHg 75%
    02:00 +11°C° 0 mm 1 mps 617 mmHg 75%
    03:00 +11°C° 0 mm 1 mps 617 mmHg 76%
    04:00 +11°C° 0 mm 1 mps 617 mmHg 77%
    05:00 +10°C° 0 mm 1 mps 617 mmHg 77%
    06:00 +10°C° 0 mm 1 mps 617 mmHg 78%
    07:00 +14°C° 0 mm 1 mps 619 mmHg 66%
    08:00 +18°C° 0 mm 1 mps 621 mmHg 55%
    09:00 +21°C° 0 mm 1 mps 622 mmHg 44%
    10:00 +23°C° 0 mm 1 mps 622 mmHg 37%
    11:00 +24°C° 0 mm 2 mps 622 mmHg 31%
    12:00 +26°C° 0 mm 2 mps 623 mmHg 25%
    13:00 +26°C° 0 mm 2 mps 622 mmHg 25%
    14:00 +26°C° 0 mm 2 mps 621 mmHg 24%
    15:00 +26°C° 0 mm 3 mps 621 mmHg 24%
    16:00 +24°C° 0 mm 2 mps 620 mmHg 30%
    17:00 +21°C° 0 mm 2 mps 619 mmHg 37%
    18:00 +19°C° 0 mm 2 mps 619 mmHg 43%
    19:00 +18°C° 0 mm 1 mps 619 mmHg 53%
    20:00 +15°C° 0 mm 1 mps 619 mmHg 62%
    21:00 +14°C° 0 mm 1 mps 619 mmHg 72%
    22:00 +13°C° 0 mm 1 mps 619 mmHg 76%
    23:00 +13°C° 0 mm 1 mps 619 mmHg 81%

    27 February, Tuesday

    Time Temperature Precipitation Wind Pressure Humidity
    00:00 +12°C° 0 mm 1 mps 618 mmHg 85%
    01:00 +12°C° 0 mm 1 mps 618 mmHg 87%
    02:00 +12°C° 0 mm 1 mps 618 mmHg 88%
    03:00 +11°C° 0 mm 1 mps 617 mmHg 89%
    04:00 +11°C° 0 mm 1 mps 617 mmHg 90%
    05:00 +11°C° 0 mm 1 mps 617 mmHg 90%
    06:00 +10°C° 0 mm 1 mps 617 mmHg 90%
    07:00 +13°C° 0 mm 1 mps 619 mmHg 78%
    08:00 +16°C° 0 mm 1 mps 620 mmHg 65%
    09:00 +19°C° 0 mm 2 mps 622 mmHg 53%
    10:00 +21°C° 0 mm 2 mps 622 mmHg 45%
    11:00 +23°C° 0 mm 2 mps 622 mmHg 38%
    12:00 +25°C° 0 mm 3 mps 623 mmHg 31%
    13:00 +25°C° 0 mm 3 mps 622 mmHg 30%
    14:00 +25°C° 0 mm 3 mps 621 mmHg 30%
    15:00 +25°C° 0 mm 3 mps 620 mmHg 30%
    16:00 +22°C° 0 mm 3 mps 620 mmHg 38%
    17:00 +20°C° 0 mm 2 mps 619 mmHg 46%
    18:00 +18°C° 0 mm 2 mps 619 mmHg 55%
    19:00 +16°C° 0.1 mm 2 mps 619 mmHg 63%
    20:00 +15°C° 0.1 mm 2 mps 619 mmHg 71%
    21:00 +14°C° 0.1 mm 1 mps 619 mmHg 80%
    22:00 +13°C° 0.1 mm 1 mps 618 mmHg 82%
    23:00 +13°C° 0.1 mm 1 mps 618 mmHg 85%

    28 February, Wednesday

    Time Temperature Precipitation Wind Pressure Humidity
    00:00 +13°C° 0.1 mm 1 mps 618 mmHg 87%
    01:00 +12°C° 0 mm 1 mps 618 mmHg 87%
    02:00 +12°C° 0 mm 1 mps 617 mmHg 88%
    03:00 +12°C° 0 mm 1 mps 617 mmHg 88%
    04:00 +11°C° 0 mm 1 mps 617 mmHg 89%
    05:00 +11°C° 0 mm 1 mps 617 mmHg 90%
    06:00 +10°C° 0 mm 1 mps 617 mmHg 91%
    07:00 +13°C° 0 mm 1 mps 618 mmHg 78%
    08:00 +16°C° 0 mm 1 mps 619 mmHg 65%
    09:00 +20°C° 0 mm 1 mps 621 mmHg 53%
    10:00 +22°C° 0 mm 1 mps 621 mmHg 44%
    11:00 +24°C° 0 mm 2 mps 621 mmHg 34%
    12:00 +26°C° 0 mm 2 mps 621 mmHg 25%
    13:00 +26°C° 0 mm 2 mps 621 mmHg 24%
    14:00 +27°C° 0 mm 2 mps 620 mmHg 23%
    15:00 +27°C° 0 mm 2 mps 620 mmHg 21%
    16:00 +25°C° 0 mm 2 mps 619 mmHg 27%
    17:00 +21°C° 0 mm 2 mps 618 mmHg 33%
    18:00 +19°C° 0 mm 2 mps 618 mmHg 39%
    19:00 +18°C° 0 mm 1 mps 617 mmHg 48%
    20:00 +15°C° 0 mm 1 mps 617 mmHg 57%
    21:00 +13°C° 0 mm 1 mps 617 mmHg 66%
    22:00 +13°C° 0 mm 1 mps 617 mmHg 68%
    23:00 +13°C° 0 mm 1 mps 617 mmHg 69%

    1 March, Thursday

    Time Temperature Precipitation Wind Pressure Humidity
    00:00 +12°C° 0 mm 1 mps 617 mmHg 71%
    01:00 +12°C° 0 mm 1 mps 616 mmHg 71%
    02:00 +12°C° 0 mm 1 mps 616 mmHg 72%
    03:00 +11°C° 0 mm 1 mps 616 mmHg 72%
    04:00 +11°C° 0 mm 1 mps 616 mmHg 73%
    05:00 +11°C° 0 mm 1 mps 616 mmHg 75%
    06:00 +11°C° 0 mm 1 mps 616 mmHg 76%
    07:00 +14°C° 0 mm 1 mps 618 mmHg 66%
    08:00 +18°C° 0 mm 1 mps 619 mmHg 56%
    09:00 +22°C° 0 mm 1 mps 621 mmHg 47%
    10:00 +24°C° 0 mm 1 mps 621 mmHg 39%
    11:00 +25°C° 0 mm 1 mps 621 mmHg 32%
    12:00 +27°C° 0 mm 2 mps 622 mmHg 25%
    13:00 +27°C° 0 mm 2 mps 621 mmHg 24%
    14:00 +27°C° 0 mm 2 mps 620 mmHg 23%
    15:00 +27°C° 0 mm 2 mps 619 mmHg 22%
    16:00 +25°C° 0 mm 2 mps 619 mmHg 28%
    17:00 +21°C° 0 mm 2 mps 618 mmHg 34%
    18:00 +20°C° 0 mm 1 mps 617 mmHg 40%
    19:00 +18°C° 0 mm 1 mps 617 mmHg 47%
    20:00 +15°C° 0 mm 1 mps 617 mmHg 54%
    21:00 +14°C° 0 mm 1 mps 617 mmHg 61%
    22:00 +13°C° 0 mm 1 mps 617 mmHg 63%
    23:00 +13°C° 0 mm 1 mps 617 mmHg 66%
    Show more